EW2077 Weather Reports


Display with metric or nautical units.
time (UTC)temp
F
wind
direction
speed
MPH
gust
MPH
rain 1hr
in
rain 24hr
in
rain mn
in
humidity
%
barometer
mb
20260503021515 50 229 0.0 0.0 0.00 0.00 0.00 28 1041.3
20260503020012 52 229 0.0 0.0 0.00 0.00 0.00 26 1041.3
20260503014511 54 229 0.0 0.0 0.00 0.00 0.00 22 1041.2
20260503013011 56 229 0.0 0.0 0.00 0.00 0.00 19 1041.1
20260503011511 57 229 0.0 0.0 0.00 0.00 0.00 18 1041.0
20260503010009 58 229 0.0 1.0 0.00 0.00 0.00 18 1041.0
20260503004508 59 229 0.0 0.0 0.00 0.00 0.00 17 1041.0
20260503003015 59 229 0.0 0.0 0.00 0.00 0.00 17 1041.1
20260503001505 60 229 0.0 2.0 0.00 0.00 0.00 17 1041.2
20260503000003 60 229 0.0 4.0 0.00 0.00 0.00 17 1041.2
20260502234502 61 229 0.0 3.0 0.00 0.00 0.00 15 1041.2
20260502233001 61 229 0.0 4.0 0.00 0.00 0.00 17 1041.3
20260502231604 62 229 0.0 4.0 0.00 0.00 0.00 17 1041.2
20260502230059 63 228 0.0 2.0 0.00 0.00 0.00 16 1041.3
20260502224557 63 228 0.0 3.0 0.00 0.00 0.00 17 1041.4
20260502223054 63 228 0.0 3.0 0.00 0.00 0.00 17 1041.6
20260502221551 63 210 0.0 3.0 0.00 0.00 0.00 17 1041.9
20260502220049 63 201 1.0 11.0 0.00 0.00 0.00 20 1042.1
20260502214557 63 218 1.0 4.0 0.00 0.00 0.00 18 1042.4
20260502213043 63 220 0.0 2.0 0.00 0.00 0.00 20 1042.9
20260502211541 64 215 1.0 4.0 0.00 0.00 0.00 19 1043.3
20260502210041 63 212 0.0 1.0 0.00 0.00 0.00 24 1043.5
20260502204536 62 212 0.0 2.0 0.00 0.00 0.00 23 1043.8
20260502203036 63 212 1.0 7.0 0.00 0.00 0.00 22 1043.9
20260502201530 63 209 0.0 3.0 0.00 0.00 0.00 24 1044.1
20260502200028 62 204 1.0 6.0 0.00 0.00 0.00 24 1044.3
20260502194528 62 204 0.0 1.0 0.00 0.00 0.00 26 1044.6
20260502193022 62 204 1.0 6.0 0.00 0.00 0.00 22 1044.8
20260502191519 61 198 0.0 3.0 0.00 0.00 0.00 23 1045.1
20260502190016 60 198 0.0 3.0 0.00 0.00 0.00 23 1045.5
20260502184515 59 198 0.0 5.0 0.00 0.00 0.00 23 1045.8
20260502183012 58 199 0.0 5.0 0.00 0.00 0.00 21 1046.0
20260502181510 60 208 0.0 3.0 0.00 0.00 0.00 19 1046.2
20260502163056 53 202 1.0 4.0 0.00 0.00 0.00 27 1047.4
20260502161551 52 203 1.0 5.0 0.00 0.00 0.00 30 1047.5
20260502151538 47 198 0.0 4.0 0.00 0.00 0.00 35 1048.4
20260502123106 27 198 0.0 0.0 0.00 0.00 0.00 77 1048.7
20260502121557 26 198 0.0 0.0 0.00 0.00 0.00 78 1048.5
20260502114558 27 198 0.0 0.0 0.00 0.00 0.00 78 1048.5
20260502113054 27 198 0.0 0.0 0.00 0.00 0.00 78 1048.3
20260502111554 27 198 0.0 0.0 0.00 0.00 0.00 78 1048.4
20260502110059 27 198 0.0 0.0 0.00 0.00 0.00 77 1048.4
20260502104552 27 198 0.0 0.0 0.00 0.00 0.00 78 1048.3
20260502103058 27 198 0.0 0.0 0.00 0.00 0.00 79 1048.3
20260502101613 27 198 0.0 0.0 0.00 0.00 0.00 80 1048.3
20260502100112 27 198 0.0 0.0 0.00 0.00 0.00 80 1048.1
20260502071533 29 198 0.0 0.0 0.00 0.00 0.00 81 1048.1
20260502070038 29 198 0.0 0.0 0.00 0.00 0.00 80 1048.2
20260502064528 29 198 0.0 0.0 0.00 0.00 0.00 80 1048.2
20260502063030 29 198 0.0 0.0 0.00 0.00 0.00 80 1048.2
20260502061525 30 198 0.0 0.0 0.00 0.00 0.00 78 1048.3
20260502060020 30 198 0.0 0.0 0.00 0.00 0.00 78 1048.1
20260502054520 31 198 0.0 0.0 0.00 0.00 0.00 77 1048.2
20260502053021 31 198 0.0 0.0 0.00 0.00 0.00 76 1048.1
20260502051526 31 198 0.0 0.0 0.00 0.00 0.00 75 1048.1
20260502050023 32 198 0.0 0.0 0.00 0.00 0.00 73 1048.1
20260502044520 33 198 0.0 0.0 0.00 0.00 0.00 73 1047.9
20260502043018 34 198 0.0 0.0 0.00 0.00 0.00 70 1047.8
20260502041518 35 198 0.0 0.0 0.00 0.00 0.00 70 1047.7
20260502040030 36 198 0.0 0.0 0.00 0.00 0.00 68 1047.4
20260502034517 37 198 0.0 0.0 0.00 0.00 0.00 65 1047.3
20260502033116 38 198 0.0 0.0 0.00 0.00 0.00 64 1047.1
20260502031515 39 198 0.0 0.0 0.00 0.00 0.00 60 1046.9
20260502030014 40 198 0.0 0.0 0.00 0.00 0.00 58 1046.6
20260502024533 41 198 0.0 0.0 0.00 0.00 0.00 55 1046.3
20260502023014 41 198 0.0 0.0 0.00 0.00 0.00 55 1046.2